When you browse on this site, cookies collect data to enhance your experience and personalize the content and advertising you see.
Visit our Privacy Policy to learn more. By continuing to use the site, you agree to this use of cookies and data.
  • In Hungary
  • List of Countries
  • For 7 days
  • Water Temperature
  • Satellite Maps
  • Weather Map
  • News
  • Weather Widgets
  • user-avatar
    Login

    Hourly Weather Kolomak

    Today, 21 January, Monday

    Time Temperature Precipitation Wind Pressure Humidity
    00:00 -6°C° 0.2 mm 2 mps 752 mmHg 95%
    01:00 -6°C° 0.2 mm 2 mps 752 mmHg 96%
    02:00 -6°C° 0 mm 2 mps 751 mmHg 97%
    03:00 -4°C° 0.7 mm 1 mps 750 mmHg 97%
    04:00 -4°C° 0.7 mm 1 mps 750 mmHg 98%
    05:00 -4°C° 0.7 mm 1 mps 749 mmHg 98%
    06:00 -4°C° 0.7 mm 1 mps 749 mmHg 98%
    07:00 -4°C° 0.7 mm 1 mps 749 mmHg 97%
    08:00 -4°C° 0 mm 1 mps 749 mmHg 97%
    09:00 -6°C° 0.1 mm 2 mps 749 mmHg 96%
    10:00 -6°C° 0.1 mm 3 mps 749 mmHg 95%
    11:00 -7°C° 0.1 mm 4 mps 749 mmHg 94%
    12:00 -7°C° 0 mm 4 mps 749 mmHg 93%
    13:00 -7°C° 0 mm 4 mps 749 mmHg 93%
    14:00 -7°C° 0 mm 5 mps 750 mmHg 92%
    15:00 -8°C° 0 mm 4 mps 750 mmHg 92%
    16:00 -9°C° 0 mm 4 mps 751 mmHg 91%
    17:00 -9°C° 0 mm 4 mps 751 mmHg 91%
    18:00 -10°C° 0 mm 4 mps 752 mmHg 91%
    19:00 -10°C° 0 mm 3 mps 752 mmHg 92%
    20:00 -10°C° 0 mm 3 mps 752 mmHg 92%
    21:00 -10°C° 0 mm 2 mps 753 mmHg 93%
    22:00 -10°C° 0 mm 2 mps 753 mmHg 93%
    23:00 -12°C° 0 mm 2 mps 754 mmHg 93%

    Tomorrow, 22 January, Tuesday

    Time Temperature Precipitation Wind Pressure Humidity
    00:00 -13°C° 0 mm 2 mps 754 mmHg 94%
    01:00 -14°C° 0 mm 2 mps 754 mmHg 95%
    02:00 -15°C° 0 mm 2 mps 754 mmHg 96%
    03:00 -16°C° 0 mm 2 mps 754 mmHg 97%
    04:00 -16°C° 0 mm 2 mps 754 mmHg 97%
    05:00 -17°C° 0 mm 2 mps 755 mmHg 98%
    06:00 -15°C° 0 mm 1 mps 755 mmHg 98%
    07:00 -15°C° 0 mm 1 mps 755 mmHg 98%
    08:00 -15°C° 0 mm 1 mps 755 mmHg 98%
    09:00 -13°C° 0 mm 1 mps 755 mmHg 97%
    10:00 -12°C° 0 mm 1 mps 756 mmHg 96%
    11:00 -10°C° 0 mm 1 mps 756 mmHg 95%
    12:00 -10°C° 0 mm 1 mps 756 mmHg 94%
    13:00 -9°C° 0 mm 1 mps 755 mmHg 94%
    14:00 -9°C° 0 mm 1 mps 755 mmHg 93%
    15:00 -10°C° 0 mm 1 mps 755 mmHg 94%
    16:00 -10°C° 0 mm 1 mps 755 mmHg 95%
    17:00 -11°C° 0 mm 1 mps 755 mmHg 96%
    18:00 -11°C° 0 mm 1 mps 755 mmHg 97%
    19:00 -12°C° 0 mm 1 mps 755 mmHg 97%
    20:00 -14°C° 0 mm 2 mps 755 mmHg 97%
    21:00 -14°C° 0 mm 2 mps 755 mmHg 97%
    22:00 -15°C° 0 mm 2 mps 755 mmHg 97%
    23:00 -15°C° 0 mm 2 mps 755 mmHg 97%

    Day after tomorrow, 23 January, Wednesday

    Time Temperature Precipitation Wind Pressure Humidity
    00:00 -15°C° 0 mm 2 mps 755 mmHg 97%
    01:00 -16°C° 0 mm 3 mps 755 mmHg 97%
    02:00 -17°C° 0 mm 3 mps 755 mmHg 96%
    03:00 -16°C° 0 mm 3 mps 754 mmHg 95%
    04:00 -16°C° 0 mm 3 mps 754 mmHg 94%
    05:00 -16°C° 0 mm 3 mps 754 mmHg 93%
    06:00 -16°C° 0 mm 4 mps 754 mmHg 92%
    07:00 -16°C° 0 mm 4 mps 753 mmHg 90%
    08:00 -17°C° 0 mm 5 mps 753 mmHg 89%
    09:00 -15°C° 0 mm 5 mps 753 mmHg 88%
    10:00 -14°C° 0 mm 5 mps 753 mmHg 87%
    11:00 -14°C° 0 mm 6 mps 753 mmHg 86%
    12:00 -14°C° 0 mm 6 mps 752 mmHg 87%
    13:00 -12°C° 0 mm 6 mps 751 mmHg 88%
    14:00 -12°C° 0 mm 6 mps 751 mmHg 89%
    15:00 -13°C° 0.3 mm 7 mps 750 mmHg 90%
    16:00 -13°C° 0.3 mm 7 mps 749 mmHg 92%
    17:00 -13°C° 0.3 mm 7 mps 749 mmHg 93%
    18:00 -12°C° 0.7 mm 8 mps 748 mmHg 94%
    19:00 -12°C° 0.7 mm 8 mps 747 mmHg 94%
    20:00 -11°C° 0.7 mm 8 mps 747 mmHg 94%
    21:00 -10°C° 1.7 mm 8 mps 746 mmHg 94%
    22:00 -8°C° 1.7 mm 8 mps 745 mmHg 95%
    23:00 -7°C° 1.7 mm 7 mps 744 mmHg 95%

    24 January, Thursday

    Time Temperature Precipitation Wind Pressure Humidity
    00:00 -4°C° 0.6 mm 7 mps 744 mmHg 97%
    01:00 -3°C° 0.6 mm 6 mps 744 mmHg 98%
    02:00 0°C° 0.6 mm 5 mps 743 mmHg 99%
    03:00 0°C° 0.2 mm 5 mps 743 mmHg 99%
    04:00 0°C° 0.2 mm 5 mps 743 mmHg 99%
    05:00 0°C° 0.2 mm 5 mps 742 mmHg 99%
    06:00 0°C° 0.1 mm 4 mps 743 mmHg 99%
    07:00 0°C° 0.1 mm 4 mps 743 mmHg 99%
    08:00 +1°C° 0.1 mm 3 mps 744 mmHg 99%
    09:00 0°C° 0 mm 3 mps 744 mmHg 99%
    10:00 0°C° 0 mm 3 mps 744 mmHg 99%
    11:00 +1°C° 0 mm 2 mps 745 mmHg 99%
    12:00 +1°C° 0 mm 2 mps 745 mmHg 99%
    13:00 +1°C° 0 mm 2 mps 745 mmHg 99%
    14:00 +1°C° 0 mm 2 mps 745 mmHg 99%
    15:00 +1°C° 0 mm 1 mps 745 mmHg 99%
    16:00 +1°C° 0 mm 1 mps 745 mmHg 98%
    17:00 +1°C° 0 mm 1 mps 746 mmHg 98%
    18:00 0°C° 0.1 mm 1 mps 746 mmHg 98%
    19:00 0°C° 0.1 mm 1 mps 746 mmHg 98%
    20:00 0°C° 0.1 mm 1 mps 746 mmHg 98%
    21:00 0°C° 0.2 mm 1 mps 746 mmHg 98%
    22:00 0°C° 0.2 mm 1 mps 746 mmHg 97%
    23:00 0°C° 0.2 mm 1 mps 746 mmHg 97%

    25 January, Friday

    Time Temperature Precipitation Wind Pressure Humidity
    00:00 0°C° 0.5 mm 1 mps 746 mmHg 97%
    01:00 0°C° 0.5 mm 1 mps 746 mmHg 97%
    02:00 0°C° 0.5 mm 1 mps 746 mmHg 97%
    03:00 -3°C° 0.4 mm 2 mps 746 mmHg 97%
    04:00 -3°C° 0.4 mm 2 mps 745 mmHg 97%
    05:00 -4°C° 0.4 mm 3 mps 745 mmHg 97%
    06:00 -5°C° 0.2 mm 3 mps 745 mmHg 97%
    07:00 -6°C° 0.2 mm 3 mps 745 mmHg 96%
    08:00 -7°C° 0.2 mm 4 mps 746 mmHg 96%
    09:00 -7°C° 0 mm 4 mps 746 mmHg 96%
    10:00 -7°C° 0 mm 4 mps 746 mmHg 95%
    11:00 -7°C° 0 mm 4 mps 746 mmHg 95%
    12:00 -7°C° 0 mm 4 mps 746 mmHg 95%
    13:00 -7°C° 0 mm 4 mps 746 mmHg 95%
    14:00 -7°C° 0 mm 4 mps 746 mmHg 95%
    15:00 -7°C° 0 mm 4 mps 746 mmHg 93%
    16:00 -7°C° 0 mm 4 mps 747 mmHg 92%
    17:00 -8°C° 0 mm 4 mps 747 mmHg 91%
    18:00 -9°C° 0 mm 4 mps 747 mmHg 92%
    19:00 -10°C° 0 mm 3 mps 748 mmHg 94%
    20:00 -12°C° 0 mm 3 mps 748 mmHg 95%
    21:00 -13°C° 0 mm 3 mps 748 mmHg 96%
    22:00 -14°C° 0 mm 3 mps 748 mmHg 96%
    23:00 -15°C° 0 mm 3 mps 748 mmHg 96%

    26 January, Saturday

    Time Temperature Precipitation Wind Pressure Humidity
    00:00 -14°C° 0 mm 2 mps 748 mmHg 96%
    01:00 -15°C° 0 mm 2 mps 748 mmHg 96%
    02:00 -15°C° 0 mm 2 mps 748 mmHg 96%
    03:00 -15°C° 0 mm 2 mps 748 mmHg 96%
    04:00 -16°C° 0 mm 2 mps 748 mmHg 96%
    05:00 -17°C° 0 mm 3 mps 748 mmHg 96%
    06:00 -17°C° 0 mm 3 mps 748 mmHg 96%
    07:00 -17°C° 0 mm 3 mps 748 mmHg 96%
    08:00 -16°C° 0 mm 2 mps 748 mmHg 96%
    09:00 -16°C° 0 mm 3 mps 748 mmHg 95%
    10:00 -14°C° 0 mm 3 mps 748 mmHg 95%
    11:00 -13°C° 0 mm 3 mps 748 mmHg 95%
    12:00 -12°C° 0 mm 3 mps 748 mmHg 95%
    13:00 -12°C° 0 mm 3 mps 747 mmHg 95%
    14:00 -9°C° 0 mm 2 mps 747 mmHg 94%
    15:00 -9°C° 0 mm 2 mps 747 mmHg 95%
    16:00 -9°C° 0 mm 2 mps 747 mmHg 95%
    17:00 -10°C° 0 mm 2 mps 747 mmHg 95%
    18:00 -10°C° 0 mm 2 mps 747 mmHg 95%
    19:00 -10°C° 0 mm 3 mps 747 mmHg 95%
    20:00 -10°C° 0 mm 3 mps 747 mmHg 95%
    21:00 -10°C° 0 mm 3 mps 747 mmHg 95%
    22:00 -9°C° 0 mm 2 mps 747 mmHg 95%
    23:00 -10°C° 0 mm 2 mps 747 mmHg 96%
    Show more